User: anonymous   Login
Location: Brno
(49.2000°N, 16.6330°E)
Time: 20:53:36
(UTC+02:00)
Language:

Meteor 1-4 Rocket - Orbit

View from above orbital plane
View from above orbital plane
View from above satellite
View from above satellite

Ground track
Ground track

The orbit data is extracted from the following two-line orbital elements,

1 04394U 70037B   14297.42221440  .00009431  00000-0  40556-3 0  7122
2 04394 081.2466 065.9783 0047323 173.3354 186.8519 15.21474623417355
Epoch (UTC): 24 October 2014 10:07:59
Eccentricity: 0.0047323
inclination: 81.2466°
perigee height: 469 km
apogee height: 534 km
right ascension of ascending node: 65.9783°
argument of perigee: 173.3354°
revolutions per day: 15.21474623
mean anomaly at epoch: 186.8519°
orbit number at epoch: 41735

The dashed part of the orbit path shows where the satellite is in the earth's shadow,  

DLR